Wind_Speed
33 35 36 37 38 39 40 41 41 42 43 44 44 44 45 46 46 47 47 48 48 49 49 50 50 51 51 52 52 53 54 55 54 54 55 56 57 59 59 60 61 62 63
34 35 36 37 39 40 41 41 42 42 43 44 44 45 46 47 47 48 49 49 50 51 51 52 52 53 53 54 55 55 56 56 57 57 57 59 60 61 62 63 64 65 65
35 37 37 38 39 40 41 42 42 43 44 45 45 46 47 48 49 49 50 51 52 52 53 53 54 54 55 55 56 56 57 58 59 59 60 61 62 64 65 65 66 67 67
37 38 39 39 40 41 42 43 43 44 45 46 46 47 48 49 49 50 51 52 52 53 54 55 55 56 56 57 57 57 58 59 60 61 62 62 64 65 67 68 68 68 69
38 39 39 40 41 42 43 44 44 45 46 46 46 47 48 50 51 51 52 53 53 54 54 55 55 56 56 57 57 58 59 60 61 62 63 64 65 66 67 68 69 69 69
39 40 41 41 42 43 44 44 45 45 46 46 47 48 49 50 51 52 53 53 53 54 54 54 55 56 57 57 58 60 61 61 62 63 64 65 65 66 67 68 69 69 68
40 41 42 43 43 44 45 45 46 47 48 48 49 49 50 50 51 52 52 53 53 53 54 55 55 56 57 58 59 60 61 62 63 63 64 64 65 66 67 67 67 66 66
41 42 43 43 44 45 46 46 47 48 49 49 49 50 50 50 51 51 52 53 53 53 53 54 55 56 57 58 58 59 60 61 63 63 64 64 64 65 66 66 66 66 64
42 42 43 44 45 46 46 47 48 48 49 49 50 50 51 51 51 52 52 52 52 53 54 55 55 56 57 58 59 59 60 60 62 63 64 64 64 65 65 65 64 64 62
43 44 44 45 46 47 47 48 48 49 49 49 50 50 51 51 51 52 52 52 52 53 54 54 55 56 57 58 59 59 59 59 60 61 62 63 63 63 64 64 63 62 61
45 45 45 46 46 47 48 48 49 49 50 50 51 51 51 51 52 52 53 53 53 53 54 54 55 56 56 57 58 59 59 59 60 60 60 60 60 61 61 60 59 58 57
45 45 46 46 47 47 48 49 50 51 51 51 51 51 51 52 52 53 53 54 54 54 54 54 54 55 56 57 58 58 58 59 58 58 58 57 57 57 56 55 54 53 53
45 46 46 46 47 47 48 48 49 50 51 51 51 51 51 52 53 53 53 53 53 54 53 54 54 55 56 56 57 57 57 56 56 55 55 54 54 53 53 51 51 50 49
47 47 48 48 48 48 48 49 49 50 50 50 50 50 51 51 52 52 52 52 53 53 53 54 54 55 56 56 56 55 55 55 54 54 53 52 51 50 49 48 48 48 47
48 48 48 48 49 49 49 49 49 49 49 50 50 51 51 51 51 52 52 52 53 54 54 54 54 54 55 55 54 54 53 53 52 51 50 48 48 47 47 46 46 45 44
48 48 48 48 48 48 48 48 48 48 49 49 50 50 50 51 51 51 52 53 53 54 54 53 53 54 53 53 52 51 50 49 49 48 47 46 45 45 44 43 43 42 41
47 47 47 46 46 46 47 47 48 48 49 49 49 49 50 50 50 50 51 52 52 52 52 52 52 52 51 50 49 48 46 46 45 45 45 44 44 43 42 41 41 40 39
45 45 44 44 45 46 47 47 47 47 47 47 47 48 49 50 50 51 51 51 51 51 51 50 50 50 49 47 46 44 43 43 43 43 43 42 41 40 39 39 39 37 36
44 43 44 44 45 45 46 46 46 45 45 45 45 47 49 49 50 50 50 50 50 49 49 49 48 47 46 45 43 42 42 42 42 41 40 40 38 37 37 37 36 34 32
43 43 43 43 44 44 44 44 44 44 43 44 45 46 47 47 47 47 48 48 48 47 46 46 45 44 43 41 40 40 40 40 39 38 38 36 35 35 34 33 31 29 28
42 42 42 42 42 42 42 42 42 42 43 44 44 45 46 46 46 46 46 45 44 44 44 43 41 40 39 38 38 37 37 37 37 36 35 34 33 32 30 29 28 26 25
40 40 40 40 40 40 40 41 41 41 42 42 43 44 44 45 45 44 43 42 42 42 41 40 38 37 36 36 36 36 35 35 33 32 31 31 30 29 28 26 25 24 23
39 39 38 38 38 38 39 40 41 42 42 42 43 43 43 43 42 41 41 40 40 39 38 37 37 36 36 35 34 33 32 31 30 29 28 27 27 26 25 24 23 22 21
37 37 36 36 37 37 38 39 40 41 41 42 42 41 41 41 40 39 39 39 38 37 36 35 34 33 32 31 31 30 29 28 28 27 26 26 25 24 23 22 21 20 19
36 36 36 37 37 38 39 39 40 40 41 40 40 40 39 38 38 38 37 35 34 33 33 31 30 29 28 28 28 28 27 27 26 25 24 23 22 21 20 19 18 17 16
36 36 37 38 38 39 39 39 39 39 39 39 38 37 37 36 35 34 33 31 30 29 28 27 26 26 26 26 26 26 25 25 24 23 22 21 20 18 17 17 16 14 13
Wind_Direction
258 259 259 259 261 262 264 266 268 269 269 271 273 274 276 278 279 280 279 279 279 279 280 281 281 281 282 283 284 285 285 286 285 285 285 285 285 285 286 286 286 286 286
261 262 261 261 262 264 266 267 269 270 271 273 274 276 278 279 280 280 280 281 281 281 282 282 282 282 283 284 285 285 286 286 286 285 285 285 285 286 286 286 286 286 286
263 264 264 264 265 267 269 270 272 273 274 276 277 278 279 280 281 281 282 282 282 282 282 282 282 283 283 284 285 286 286 286 286 286 286 286 286 286 287 287 287 287 286
264 264 265 266 267 268 270 272 274 276 277 278 279 279 280 280 281 281 282 283 283 283 282 283 283 283 284 284 285 286 286 286 287 287 287 287 287 287 287 287 286 286 286
266 266 267 268 269 270 272 274 275 276 278 279 279 280 280 281 281 282 283 284 284 284 284 283 283 284 284 285 285 286 287 287 287 288 288 288 288 289 288 287 287 287 287
267 268 268 269 271 272 274 275 277 278 279 279 280 280 281 282 283 283 284 284 284 284 284 284 284 285 286 286 287 287 287 288 288 289 289 289 290 290 290 289 289 288 288
269 269 270 271 272 274 275 276 277 278 279 280 281 282 282 283 283 284 284 284 284 285 285 285 285 286 286 287 287 287 288 289 289 290 291 291 291 291 291 292 291 291 290
271 271 272 273 274 275 276 277 278 279 281 282 282 283 283 283 284 284 284 285 285 286 286 286 286 287 287 287 287 288 289 289 290 290 292 293 293 293 293 293 292 292 291
273 273 273 274 275 276 276 277 279 280 280 281 282 282 283 284 284 285 285 286 286 287 287 288 288 288 288 288 289 289 290 290 290 291 292 293 294 294 294 294 293 293 292
274 274 274 275 276 277 277 278 279 279 281 282 282 283 283 284 285 285 286 286 287 288 288 289 289 289 290 290 291 291 292 292 291 292 292 293 294 295 294 294 294 293 293
276 276 276 277 277 278 278 278 279 280 281 282 283 283 284 285 285 286 287 287 288 288 288 289 290 290 291 291 292 293 293 293 293 293 293 294 294 295 295 295 294 294 294
277 277 278 278 278 279 279 280 280 281 282 283 284 284 285 285 286 286 287 288 289 289 290 290 290 291 292 292 293 294 294 294 294 294 294 295 295 296 296 296 295 295 296
277 277 278 278 279 279 280 281 281 282 282 283 284 284 285 286 286 287 288 289 289 290 290 291 292 292 293 293 293 294 294 294 295 295 296 296 297 297 297 296 296 296 296
277 278 279 279 279 280 280 281 282 282 282 283 284 285 286 286 287 288 288 288 289 290 290 291 292 292 293 294 294 294 294 295 295 295 296 297 297 297 297 296 296 297 298
278 279 279 280 280 281 282 283 283 283 284 285 285 286 286 287 287 288 288 289 289 290 291 291 292 292 293 293 294 294 294 294 295 296 296 297 297 297 297 297 298 299 299
279 280 280 281 281 282 283 284 284 285 286 287 287 287 287 287 288 288 289 290 291 292 292 292 293 293 293 293 293 293 293 294 294 295 296 297 297 297 297 298 299 299 300
280 280 281 280 281 282 283 284 284 285 286 286 287 287 288 288 289 289 290 291 291 292 293 293 294 294 294 294 294 293 293 293 294 295 296 297 297 297 298 298 299 299 300
280 280 281 281 282 283 284 285 285 285 285 285 286 287 287 289 290 290 291 291 292 293 293 294 294 294 294 294 294 293 293 293 294 295 296 297 297 297 298 298 299 299 299
281 281 282 282 282 283 284 284 284 284 285 285 286 287 289 290 291 291 291 292 293 293 293 294 294 294 294 293 293 293 293 294 294 295 296 297 296 296 298 299 299 299 298
282 283 283 283 283 283 284 284 284 285 285 286 287 289 290 291 291 291 292 292 293 293 293 294 294 294 293 292 292 293 294 294 294 295 295 295 295 296 298 299 299 299 299
283 283 283 283 283 283 283 284 284 285 287 288 289 290 291 292 292 292 292 292 293 293 294 294 293 293 293 293 293 294 295 295 295 294 294 294 294 295 297 298 299 299 300
284 284 284 284 283 283 283 284 285 287 288 289 291 291 292 293 293 292 292 292 293 294 294 293 293 293 292 293 294 295 295 295 294 294 294 294 295 295 296 297 297 298 298
284 284 284 284 285 285 285 286 287 288 289 290 291 292 292 293 294 293 293 293 293 293 293 292 292 292 292 293 294 295 295 294 293 294 295 295 295 296 296 296 296 296 295
284 285 285 286 287 287 288 289 290 290 290 291 292 292 293 293 293 294 294 293 293 293 293 293 292 291 292 293 294 295 294 293 294 294 294 294 294 295 295 296 296 296 295
286 286 286 287 288 289 290 290 291 291 292 292 292 293 293 293 293 294 294 293 293 293 293 293 292 292 292 293 294 294 294 294 294 293 293 293 293 294 295 296 297 297 295
286 286 287 288 289 290 290 291 292 292 292 292 292 293 293 293 294 294 293 293 293 293 293 293 292 293 294 294 294 293 293 293 292 293 293 293 293 294 294 296 297 296 294
Height
5685 5686 5687 5689 5690 5691 5691 5692 5692 5692 5692 5692 5692 5691 5690 5690 5689 5688 5687 5686 5685 5683 5681 5680 5678 5676 5674 5672 5669 5667 5664 5662 5661 5660 5656 5652 5649 5645 5641 5638 5634 5631 5627
5678 5679 5679 5680 5681 5682 5682 5682 5682 5682 5681 5681 5680 5679 5679 5678 5677 5676 5675 5673 5672 5670 5669 5667 5664 5662 5660 5657 5655 5652 5649 5646 5645 5644 5641 5637 5633 5628 5624 5621 5617 5613 5609
5670 5670 5671 5671 5672 5672 5672 5671 5671 5671 5670 5670 5669 5668 5667 5666 5665 5663 5662 5660 5659 5657 5655 5653 5650 5648 5645 5642 5639 5637 5634 5630 5627 5626 5624 5620 5616 5611 5607 5603 5599 5594 5590
5661 5661 5662 5662 5662 5662 5662 5661 5661 5660 5659 5658 5657 5656 5655 5653 5652 5650 5649 5647 5645 5643 5640 5638 5635 5633 5630 5627 5624 5621 5617 5614 5610 5607 5605 5602 5598 5593 5588 5583 5580 5575 5571
5651 5651 5651 5651 5651 5651 5651 5650 5649 5648 5647 5646 5645 5643 5642 5640 5639 5637 5635 5633 5631 5628 5626 5623 5620 5617 5614 5611 5608 5605 5601 5597 5593 5590 5587 5583 5579 5574 5568 5563 5559 5555 5551
5641 5641 5641 5641 5641 5640 5639 5639 5637 5636 5635 5634 5632 5631 5629 5627 5625 5623 5621 5619 5616 5614 5611 5608 5605 5602 5598 5595 5592 5588 5584 5580 5576 5572 5568 5564 5560 5554 5548 5543 5538 5534 5532
5631 5631 5630 5630 5629 5629 5628 5626 5625 5624 5623 5621 5619 5617 5616 5614 5611 5609 5607 5604 5602 5599 5596 5593 5590 5586 5583 5580 5576 5572 5568 5563 5558 5554 5550 5545 5540 5535 5529 5524 5518 5513 5510
5621 5620 5619 5619 5618 5616 5615 5614 5613 5611 5610 5608 5606 5604 5602 5600 5597 5595 5592 5590 5587 5584 5581 5578 5574 5571 5567 5563 5560 5556 5552 5547 5542 5536 5532 5527 5521 5515 5509 5504 5498 5494 5490
5610 5609 5608 5606 5605 5604 5603 5601 5600 5598 5596 5594 5592 5590 5588 5586 5583 5580 5578 5575 5573 5570 5566 5562 5559 5555 5551 5547 5543 5540 5536 5531 5525 5520 5514 5508 5503 5497 5490 5485 5480 5474 5472
5598 5597 5595 5594 5593 5591 5590 5588 5586 5585 5583 5581 5579 5576 5574 5572 5569 5566 5563 5561 5559 5556 5552 5548 5543 5539 5535 5530 5526 5522 5519 5515 5510 5504 5498 5492 5486 5479 5473 5466 5461 5456 5452
5586 5585 5583 5582 5580 5578 5577 5575 5573 5571 5569 5567 5565 5562 5560 5557 5554 5552 5549 5546 5543 5540 5537 5533 5528 5523 5519 5514 5510 5505 5501 5497 5492 5487 5482 5476 5470 5463 5457 5451 5445 5439 5435
5574 5573 5571 5569 5567 5565 5564 5562 5559 5557 5555 5553 5551 5548 5545 5542 5540 5537 5534 5531 5528 5525 5522 5518 5513 5508 5504 5499 5494 5489 5484 5479 5475 5470 5465 5460 5454 5448 5442 5436 5431 5426 5421
5561 5560 5558 5556 5554 5552 5550 5548 5546 5543 5541 5539 5537 5534 5532 5528 5525 5522 5519 5516 5512 5509 5506 5502 5498 5493 5488 5484 5479 5473 5468 5464 5459 5455 5450 5445 5439 5433 5428 5423 5418 5413 5408
5548 5546 5544 5542 5540 5538 5536 5534 5532 5529 5527 5525 5522 5520 5517 5514 5511 5508 5505 5501 5497 5494 5491 5487 5482 5478 5473 5469 5464 5459 5453 5448 5444 5440 5435 5430 5425 5420 5415 5410 5405 5400 5396
5533 5531 5530 5528 5526 5524 5522 5520 5517 5515 5513 5510 5508 5505 5503 5500 5497 5493 5490 5487 5483 5479 5476 5472 5468 5463 5459 5454 5449 5444 5439 5434 5430 5425 5421 5417 5412 5407 5403 5398 5393 5388 5384
5519 5517 5515 5513 5511 5509 5507 5506 5503 5501 5498 5495 5493 5490 5487 5485 5482 5478 5475 5471 5468 5464 5460 5457 5452 5448 5444 5439 5435 5430 5426 5421 5416 5412 5408 5404 5400 5395 5391 5387 5382 5377 5373
5504 5503 5501 5499 5497 5495 5493 5491 5490 5487 5484 5481 5478 5475 5472 5470 5467 5464 5460 5457 5453 5449 5445 5441 5437 5433 5429 5424 5420 5416 5412 5408 5404 5400 5396 5392 5388 5384 5380 5375 5371 5367 5363
5491 5489 5487 5485 5483 5481 5479 5477 5475 5473 5471 5468 5465 5461 5458 5455 5452 5449 5445 5442 5439 5434 5430 5427 5423 5419 5415 5411 5407 5403 5399 5396 5392 5388 5384 5380 5376 5372 5369 5365 5361 5357 5353
5477 5476 5474 5472 5470 5468 5466 5464 5461 5459 5457 5455 5452 5448 5444 5441 5438 5435 5430 5427 5424 5421 5417 5413 5409 5405 5401 5397 5394 5390 5387 5384 5380 5376 5373 5369 5366 5362 5359 5355 5351 5347 5344
5464 5462 5460 5459 5457 5455 5452 5450 5448 5446 5444 5441 5438 5435 5432 5428 5425 5421 5417 5413 5410 5407 5403 5399 5396 5392 5388 5385 5381 5378 5375 5372 5369 5365 5362 5359 5356 5353 5349 5346 5342 5339 5336
5452 5450 5448 5446 5444 5442 5440 5437 5435 5433 5431 5428 5425 5421 5418 5415 5412 5408 5404 5400 5397 5393 5390 5386 5383 5379 5376 5373 5370 5367 5364 5361 5358 5355 5352 5349 5346 5344 5341 5338 5335 5332 5330
5439 5437 5435 5433 5431 5429 5427 5425 5423 5420 5418 5415 5412 5409 5405 5402 5398 5395 5391 5388 5384 5381 5377 5374 5371 5368 5365 5362 5359 5357 5354 5351 5348 5345 5343 5340 5338 5335 5333 5331 5328 5326 5324
5427 5425 5423 5421 5419 5417 5415 5413 5411 5408 5405 5402 5399 5396 5393 5389 5386 5382 5379 5376 5372 5369 5366 5363 5360 5357 5354 5352 5349 5346 5344 5342 5339 5337 5335 5332 5330 5328 5326 5324 5322 5320 5318
5416 5414 5412 5410 5408 5406 5404 5401 5398 5396 5393 5390 5387 5383 5380 5377 5374 5370 5367 5364 5361 5357 5354 5352 5349 5347 5344 5342 5340 5337 5335 5333 5331 5329 5327 5325 5323 5321 5319 5317 5316 5314 5312
5405 5403 5401 5399 5397 5394 5392 5389 5387 5384 5380 5377 5374 5371 5368 5365 5362 5359 5356 5353 5350 5347 5344 5342 5339 5337 5335 5333 5331 5329 5327 5325 5323 5321 5319 5318 5316 5314 5313 5311 5310 5309 5307
5394 5391 5389 5387 5385 5383 5380 5377 5375 5372 5369 5366 5363 5360 5357 5354 5351 5348 5345 5343 5340 5338 5335 5333 5331 5329 5327 5326 5324 5322 5320 5318 5316 5314 5313 5311 5310 5309 5308 5306 5305 5304 5303